| time (UTC) | temp F | wind direction | speed MPH | gust MPH | rain 1hr in | rain 24hr in | rain mn in | humidity % | barometer mb |
| 20260505170032 | 69 | 210 | 3.0 | 15.0 | 0.00 | 0.01 | 0.00 | 55 | 1006.1 |
| 20260505164530 | 68 | 0 | 0.0 | 9.0 | 0.00 | 0.01 | 0.00 | 57 | 1006.4 |
| 20260505163030 | 66 | 0 | 0.0 | 10.0 | 0.00 | 0.01 | 0.00 | 61 | 1006.6 |
| 20260505161530 | 66 | 184 | 0.0 | 12.0 | 0.00 | 0.01 | 0.00 | 59 | 1007.0 |
| 20260505153031 | 68 | 0 | 2.0 | 8.0 | 0.00 | 0.01 | 0.00 | 56 | 1006.9 |
| 20260505151531 | 67 | 178 | 0.0 | 5.0 | 0.00 | 0.01 | 0.00 | 60 | 1006.9 |
| 20260505124530 | 60 | 0 | 3.0 | 8.0 | 0.00 | 0.01 | 0.00 | 63 | 1007.5 |
| 20260505123050 | 58 | 0 | 0.0 | 8.0 | 0.00 | 0.01 | 0.00 | 66 | 1007.6 |
| 20260505121528 | 57 | 214 | 2.0 | 11.0 | 0.00 | 0.01 | 0.00 | 67 | 1007.8 |
| 20260505120030 | 56 | 200 | 2.0 | 12.0 | 0.00 | 0.01 | 0.00 | 69 | 1008.0 |
| 20260505114527 | 55 | 0 | 2.0 | 11.0 | 0.00 | 0.01 | 0.00 | 71 | 1008.0 |
| 20260505113035 | 54 | 215 | 1.0 | 6.0 | 0.00 | 0.01 | 0.00 | 73 | 1007.9 |
| 20260505111549 | 53 | 0 | 0.0 | 9.0 | 0.00 | 0.01 | 0.00 | 75 | 1007.9 |
| 20260505101533 | 50 | 0 | 0.0 | 5.0 | 0.00 | 0.01 | 0.00 | 78 | 1007.8 |
| 20260505100034 | 49 | 205 | 0.0 | 5.0 | 0.00 | 0.01 | 0.00 | 78 | 1007.8 |
| 20260505094530 | 49 | 0 | 0.0 | 8.0 | 0.00 | 0.01 | 0.00 | 79 | 1007.7 |
| 20260505093031 | 49 | 0 | 0.0 | 8.0 | 0.00 | 0.01 | 0.00 | 79 | 1007.7 |
| 20260505091534 | 49 | 0 | 1.0 | 10.0 | 0.00 | 0.01 | 0.00 | 78 | 1007.7 |
| 20260505090033 | 49 | 0 | 0.0 | 6.0 | 0.00 | 0.01 | 0.00 | 78 | 1007.7 |
| 20260505084531 | 49 | 0 | 0.0 | 5.0 | 0.00 | 0.01 | 0.00 | 78 | 1007.6 |
| 20260505083040 | 49 | 207 | 0.0 | 6.0 | 0.00 | 0.01 | 0.00 | 78 | 1007.7 |
| 20260505081533 | 49 | 0 | 0.0 | 5.0 | 0.00 | 0.01 | 0.00 | 77 | 1007.7 |
| 20260505080036 | 50 | 0 | 0.0 | 5.0 | 0.00 | 0.01 | 0.00 | 77 | 1007.7 |
| 20260505074527 | 50 | 0 | 0.0 | 4.0 | 0.00 | 0.01 | 0.00 | 76 | 1007.7 |
| 20260505073027 | 50 | 0 | 0.0 | 5.0 | 0.00 | 0.01 | 0.00 | 76 | 1007.7 |
| 20260505071535 | 50 | 0 | 0.0 | 4.0 | 0.00 | 0.01 | 0.00 | 75 | 1007.7 |
| 20260505070033 | 51 | 0 | 0.0 | 4.0 | 0.00 | 0.01 | 0.00 | 74 | 1007.7 |
| 20260505064542 | 51 | 0 | 0.0 | 1.0 | 0.00 | 0.01 | 0.00 | 73 | 1007.6 |
| 20260505063031 | 51 | 0 | 0.0 | 6.0 | 0.00 | 0.01 | 0.00 | 73 | 1007.7 |
| 20260505061538 | 51 | 0 | 0.0 | 6.0 | 0.00 | 0.01 | 0.00 | 73 | 1007.5 |
| 20260505060031 | 51 | 0 | 0.0 | 6.0 | 0.00 | 0.01 | 0.00 | 74 | 1007.6 |
| 20260505054530 | 51 | 0 | 0.0 | 6.0 | 0.00 | 0.01 | 0.00 | 74 | 1007.6 |
| 20260505053030 | 50 | 207 | 1.0 | 5.0 | 0.00 | 0.01 | 0.00 | 76 | 1007.5 |
| 20260505051527 | 50 | 202 | 0.0 | 8.0 | 0.00 | 0.01 | 0.00 | 77 | 1007.4 |
| 20260505041532 | 49 | 209 | 0.0 | 5.0 | 0.00 | 0.01 | 0.00 | 79 | 1007.1 |
| 20260505040028 | 49 | 213 | 0.0 | 3.0 | 0.00 | 0.01 | 0.00 | 79 | 1007.0 |
| 20260505034533 | 49 | 0 | 0.0 | 0.0 | 0.00 | 0.01 | 0.01 | 79 | 1007.0 |
| 20260505033035 | 49 | 0 | 0.0 | 0.0 | 0.00 | 0.01 | 0.01 | 79 | 1007.0 |
| 20260505031531 | 48 | 0 | 0.0 | 0.0 | 0.00 | 0.01 | 0.01 | 80 | 1007.0 |
| 20260505030030 | 47 | 0 | 0.0 | 0.0 | 0.00 | 0.01 | 0.01 | 82 | 1007.0 |
| 20260505024539 | 48 | 0 | 0.0 | 0.0 | 0.00 | 0.01 | 0.01 | 84 | 1007.0 |
| 20260505023029 | 48 | 0 | 0.0 | 0.0 | 0.00 | 0.01 | 0.01 | 84 | 1007.0 |
| 20260505021537 | 48 | 0 | 0.0 | 0.0 | 0.00 | 0.01 | 0.01 | 85 | 1007.0 |
| 20260505020032 | 48 | 0 | 0.0 | 0.0 | 0.00 | 0.01 | 0.01 | 86 | 1006.9 |
| 20260505014536 | 48 | 0 | 0.0 | 0.0 | 0.00 | 0.01 | 0.01 | 87 | 1006.9 |
| 20260505013030 | 48 | 0 | 0.0 | 0.0 | 0.00 | 0.01 | 0.01 | 87 | 1006.6 |
| 20260505011527 | 49 | 0 | 0.0 | 0.0 | 0.00 | 0.01 | 0.01 | 86 | 1006.5 |
| 20260505010028 | 49 | 0 | 0.0 | 0.0 | 0.00 | 0.01 | 0.01 | 84 | 1006.4 |
| 20260505004531 | 50 | 0 | 0.0 | 0.0 | 0.00 | 0.01 | 0.01 | 81 | 1006.2 |
| 20260505003028 | 52 | 0 | 0.0 | 0.0 | 0.00 | 0.01 | 0.01 | 76 | 1005.8 |
| 20260505001534 | 53 | 0 | 0.0 | 0.0 | 0.00 | 0.01 | 0.01 | 73 | 1005.6 |
| 20260505000037 | 55 | 0 | 0.0 | 0.0 | 0.00 | 0.01 | 0.01 | 69 | 1005.5 |
| 20260504234528 | 57 | 0 | 0.0 | 0.0 | 0.00 | 0.01 | 0.01 | 66 | 1005.5 |
| 20260504233029 | 60 | 0 | 0.0 | 0.0 | 0.00 | 0.01 | 0.01 | 62 | 1005.2 |
| 20260504231540 | 62 | 0 | 0.0 | 0.0 | 0.00 | 0.01 | 0.01 | 57 | 1005.1 |
| 20260504230028 | 63 | 0 | 0.0 | 4.0 | 0.00 | 0.01 | 0.01 | 50 | 1005.0 |
| 20260504224528 | 64 | 0 | 0.0 | 3.0 | 0.00 | 0.01 | 0.01 | 48 | 1005.0 |
| 20260504223030 | 64 | 0 | 0.0 | 7.0 | 0.00 | 0.01 | 0.01 | 50 | 1004.8 |
| 20260504221530 | 64 | 0 | 1.0 | 8.0 | 0.00 | 0.01 | 0.01 | 48 | 1004.8 |
| 20260504220032 | 63 | 248 | 3.0 | 13.0 | 0.00 | 0.01 | 0.01 | 49 | 1004.8 |
| 20260504214531 | 62 | 246 | 1.0 | 9.0 | 0.00 | 0.01 | 0.01 | 53 | 1004.8 |
| 20260504213030 | 64 | 0 | 0.0 | 7.0 | 0.00 | 0.01 | 0.01 | 55 | 1004.9 |
| 20260504211530 | 63 | 319 | 2.0 | 8.0 | 0.00 | 0.01 | 0.01 | 55 | 1004.6 |
| 20260504210043 | 62 | 318 | 3.0 | 9.0 | 0.00 | 0.01 | 0.01 | 56 | 1004.6 |
| 20260504204528 | 62 | 0 | 1.0 | 4.0 | 0.00 | 0.01 | 0.01 | 59 | 1004.6 |
| 20260504203033 | 62 | 240 | 1.0 | 11.0 | 0.00 | 0.01 | 0.01 | 56 | 1004.4 |
| 20260504201529 | 62 | 280 | 1.0 | 12.0 | 0.00 | 0.01 | 0.01 | 58 | 1004.4 |
| 20260504200028 | 61 | 240 | 3.0 | 13.0 | 0.00 | 0.01 | 0.01 | 60 | 1004.5 |
| 20260504194542 | 61 | 299 | 3.0 | 12.0 | 0.00 | 0.02 | 0.01 | 61 | 1004.5 |
| 20260504193030 | 60 | 261 | 1.0 | 9.0 | 0.00 | 0.02 | 0.01 | 67 | 1004.6 |
| 20260504191535 | 57 | 258 | 0.0 | 7.0 | 0.01 | 0.02 | 0.01 | 77 | 1004.6 |
| 20260504190032 | 54 | 267 | 0.0 | 2.0 | 0.01 | 0.02 | 0.01 | 80 | 1004.7 |
| 20260504184537 | 53 | 0 | 0.0 | 0.0 | 0.01 | 0.04 | 0.01 | 82 | 1005.0 |
| 20260504183028 | 52 | 0 | 0.0 | 0.0 | 0.01 | 0.04 | 0.01 | 82 | 1005.2 |
| 20260504181530 | 52 | 0 | 0.0 | 3.0 | 0.00 | 0.03 | 0.00 | 81 | 1005.3 |
| 20260504180033 | 53 | 288 | 0.0 | 3.0 | 0.00 | 0.03 | 0.00 | 76 | 1005.4 |
| 20260504174530 | 54 | 0 | 0.0 | 9.0 | 0.00 | 0.05 | 0.00 | 70 | 1005.2 |
| 20260504173035 | 56 | 302 | 3.0 | 12.0 | 0.00 | 0.05 | 0.00 | 64 | 1004.9 |
| 20260504171528 | 58 | 289 | 0.0 | 7.0 | 0.00 | 0.05 | 0.00 | 61 | 1004.5 |